Waarnemingen

Advertentie
Mijn weer
Calvi, Frankrijk (7754): temperatuur & dauwpunt: 02.08.2020 22:00:00 - 08.08.2020 22:00:00 (CEST)Calvi, Frankrijk (7754): temperatuur 5cm: 02.08.2020 22:00:00 - 08.08.2020 22:00:00 (CEST)Calvi, Frankrijk (7754): windsnelheid & windstoten: 02.08.2020 22:00:00 - 08.08.2020 22:00:00 (CEST)Calvi, Frankrijk (7754): windrichting: 02.08.2020 22:00:00 - 08.08.2020 22:00:00 (CEST)Calvi, Frankrijk (7754): luchtdruk: 02.08.2020 22:00:00 - 08.08.2020 22:00:00 (CEST)Calvi, Frankrijk (7754): zicht: 02.08.2020 22:00:00 - 08.08.2020 22:00:00 (CEST)Calvi, Frankrijk (7754): neerslag: 02.08.2020 22:00:00 - 08.08.2020 22:00:00 (CEST)
Datum & Tijd tt [°C] td [°C] tt 5cm [°C] ff [km/u] ff [kn] fx [km/u] fx [kn] dd ppp [hPa] vv [km] rr [mm]
08.08.2020 22:00:00 24,8 14,9 24,0 4 2 13 7 WZW 1016,6 41 0,0
08.08.2020 21:00:00 28,7 12,2 26,7 4 2 12 7 N 1016,0 19 0,0
08.08.2020 20:00:00 30,1 13,4 30,3 6 3 22 12 NNW 1015,9 58 0,0
08.08.2020 19:00:00 31,2 15,2 34,5 13 7 26 14 NNW 1015,7 46 0,0
08.08.2020 18:00:00 31,9 15,8 36,3 19 10 32 18 N 1015,9 47 0,0
08.08.2020 17:00:00 31,7 17,2 36,2 20 11 35 19 N 1016,1 60 0,0
08.08.2020 16:00:00 30,1 19,2 35,3 16 9 34 18 WNW 1016,7 20 0,0
08.08.2020 15:00:00 29,8 19,8 35,9 20 11 33 18 NW 1017,0 60 0,0
08.08.2020 14:00:00 30,4 18,2 34,4 19 10 30 16 NW 1017,1 60 0,0
08.08.2020 13:00:00 30,5 17,9 33,7 19 10 29 15 N 1017,6 57 0,0
08.08.2020 12:00:00 28,8 20,8 32,2 16 9 28 15 NNW 1017,7 20 0,0
08.08.2020 11:00:00 29,8 19,5 33,0 15 8 24 13 NNW 1017,8 56 0,0
08.08.2020 10:00:00 29,8 20,9 31,6 13 7 18 10 N 1018,1 46 0,0
08.08.2020 09:00:00 29,9 16,3 27,3 0 0 7 4 N 1018,2 26 0,0
08.08.2020 08:00:00 25,3 16,2 21,8 5 3 14 8 ZZW 1018,4 30 0,0
08.08.2020 07:00:00 21,7 14,8 19,8 10 6 14 8 Z 1018,5 43 0,0
08.08.2020 06:00:00 20,3 14,9 19,8 7 4 13 7 ZZW 1018,2 46 0,0
08.08.2020 05:00:00 20,4 15,0 19,8 8 4 13 7 Z 1018,1 47 0,0
08.08.2020 04:00:00 20,2 14,8 19,8 3 1 12 7 ZZW 1018,5 47 0,0
08.08.2020 03:00:00 20,6 14,9 20,1 4 2 14 8 Z 1018,5 49 0,0
08.08.2020 02:00:00 20,8 15,1 20,0 6 3 13 7 ZZW 1018,8 42 0,0
08.08.2020 01:00:00 20,8 14,7 20,3 4 2 12 6 ZZW 1019,1 42 0,0
08.08.2020 00:00:00 22,3 15,4 21,8 9 5 13 7 Z 1018,8 50 0,0
07.08.2020 23:00:00 22,5 15,3 22,1 11 6 14 8 Z 1018,2 51 0,0
07.08.2020 22:00:00 23,5 15,3 23,4 10 5 16 8 Z 1017,9 56 0,0
07.08.2020 21:00:00 26,6 17,1 26,1 7 4 18 10 NNW 1017,1 57 0,0
07.08.2020 20:00:00 27,3 18,0 27,8 9 5 25 13 NW 1016,4 60 0,0
07.08.2020 19:00:00 28,4 19,6 31,7 16 8 30 16 NW 1016,4 15 0,0
07.08.2020 18:00:00 29,1 20,3 33,5 18 10 35 19 NNW 1016,3 44 0,0
07.08.2020 17:00:00 30,7 17,8 35,6 22 12 37 20 N 1016,2 59 0,0
07.08.2020 16:00:00 30,3 19,7 35,7 18 10 51 27 NNW 1016,5 51 0,0
07.08.2020 15:00:00 30,7 18,1 34,6 25 14 44 24 N 1016,6 49 0,0
07.08.2020 14:00:00 29,4 19,4 33,1 25 13 47 25 N 1016,6 50 0,0
07.08.2020 13:00:00 32,0 16,7 34,6 32 17 49 26 N 1016,2 20 0,0
07.08.2020 12:00:00 31,4 16,6 33,6 33 18 46 25 N 1016,6 60 0,0
07.08.2020 11:00:00 30,9 18,6 32,6 28 15 46 25 N 1016,5 57 0,0
07.08.2020 10:00:00 30,9 14,9 31,7 27 15 37 20 NNO 1016,6 47 0,0
07.08.2020 09:00:00 29,8 14,4 29,0 20 11 31 17 NNO 1016,6 45 0,0
07.08.2020 08:00:00 26,9 15,3 20,2 9 5 21 12 N 1016,5 36 0,0
07.08.2020 07:00:00 19,9 14,5 18,4 6 3 11 6 ZZW 1016,6 57 0,0
07.08.2020 06:00:00 19,4 14,2 18,9 7 4 14 7 ZZW 1016,3 60 0,0
07.08.2020 05:00:00 19,7 14,3 19,1 4 2 15 8 Z 1016,4 60 0,0
07.08.2020 04:00:00 20,0 14,8 19,3 14 7 16 8 Z 1016,8 60 0,0
07.08.2020 03:00:00 19,6 15,3 19,1 10 5 13 7 Z 1017,3 60 0,0
07.08.2020 02:00:00 19,9 15,7 19,5 7 4 14 8 ZZW 1017,6 60 0,0
07.08.2020 01:00:00 20,4 16,0 19,9 8 5 14 8 ZZW 1017,6 60 0,0
07.08.2020 00:00:00 21,3 16,5 21,1 11 6 14 7 Z 1017,2 60 0,0
06.08.2020 23:00:00 22,1 16,8 21,9 6 3 13 7 Z 1016,8 60 0,0
06.08.2020 22:00:00 24,0 18,4 23,4 3 2 16 9 ZW 1016,4 60 0,0
06.08.2020 21:00:00 24,8 19,0 24,7 10 5 22 12 NW 1015,8 60 0,0
06.08.2020 20:00:00 25,6 18,8 26,1 9 5 28 15 WNW 1015,2 55 0,0
06.08.2020 19:00:00 27,3 17,5 31,1 13 7 23 12 NW 1015,0 56 0,0
06.08.2020 18:00:00 28,7 16,9 33,7 14 8 28 15 N 1015,1 50 0,0
06.08.2020 17:00:00 29,0 17,5 34,7 16 9 29 16 NNW 1015,0 20 0,0
06.08.2020 16:00:00 28,1 18,5 34,3 18 10 30 16 NNW 1015,0 60 0,0
06.08.2020 15:00:00 28,8 18,6 33,7 16 9 31 17 NNW 1015,3 60 0,0
06.08.2020 14:00:00 27,9 18,9 31,3 20 11 30 16 NNW 1015,4 60 0,0
06.08.2020 13:00:00 28,0 19,2 31,6 17 9 29 16 NNW 1015,4 60 0,0
06.08.2020 12:00:00 27,7 19,2 31,1 17 9 29 15 NNW 1015,4 60 0,0
06.08.2020 11:00:00 28,1 15,4 30,4 16 9 25 14 NNW 1015,2 60 0,0
06.08.2020 10:00:00 27,8 16,1 30,3 12 6 19 10 NNW 1015,0 49 0,0
06.08.2020 09:00:00 27,3 14,0 24,6 2 1 11 6 ZW 1014,8 37 0,0
06.08.2020 08:00:00 22,9 15,7 19,2 8 5 14 8 ZZW 1014,6 18 0,0
06.08.2020 07:00:00 19,1 14,8 17,6 7 4 14 8 ZZW 1014,6 54 0,0
06.08.2020 06:00:00 18,4 15,5 17,6 6 3 16 9 ZW 1014,4 60 0,0
06.08.2020 05:00:00 18,6 15,5 18,1 7 4 15 8 Z 1014,1 60 0,0
06.08.2020 04:00:00 18,8 16,0 18,3 8 4 13 7 ZZW 1014,6 60 0,0
06.08.2020 03:00:00 19,3 15,6 18,6 9 5 14 8 ZZW 1014,6 60 0,0
06.08.2020 02:00:00 19,1 15,2 18,7 8 4 13 7 ZZW 1014,7 60 0,0
06.08.2020 01:00:00 19,3 14,3 19,2 8 5 13 7 Z 1014,5 60 0,0
06.08.2020 00:00:00 20,1 14,9 19,6 7 4 13 7 ZZW 1014,1 60 0,0
05.08.2020 23:00:00 21,2 15,5 20,8 7 4 14 8 Z 1013,8 60 0,0
05.08.2020 22:00:00 23,1 14,9 22,5 6 3 24 13 NO 1013,3 60 0,0
05.08.2020 21:00:00 25,3 14,4 24,9 16 9 27 14 N 1012,0 60 0,0
05.08.2020 20:00:00 25,8 15,2 26,2 11 6 29 16 NW 1011,7 60 0,0
05.08.2020 19:00:00 28,0 14,6 30,9 22 12 36 20 N 1011,3 53 0,0
05.08.2020 18:00:00 28,5 14,3 32,3 21 11 39 21 N 1011,3 20 0,0
05.08.2020 17:00:00 28,1 14,7 33,4 28 15 47 25 N 1011,3 58 0,0
05.08.2020 16:00:00 28,2 14,4 33,4 34 18 48 26 N 1011,2 20 0,0
05.08.2020 15:00:00 29,0 14,8 33,9 32 17 45 25 N 1011,1 60 0,0
05.08.2020 14:00:00 28,5 14,7 32,4 31 17 46 25 N 1011,0 59 0,0
05.08.2020 13:00:00 29,2 15,0 32,3 29 16 42 23 N 1011,1 20 0,0
05.08.2020 12:00:00 29,2 15,3 30,6 22 12 36 20 N 1010,9 60 0,0
05.08.2020 11:00:00 27,4 17,0 27,5 16 9 30 16 NNW 1011,0 60 0,0
05.08.2020 10:00:00 26,0 16,8 27,6 15 8 25 14 NNW 1010,9 60 0,0
05.08.2020 09:00:00 26,1 15,2 24,8 5 3 9 5 N 1010,7 47 0,0
05.08.2020 08:00:00 22,7 11,4 17,7 5 3 13 7 Z 1010,5 60 0,0
05.08.2020 07:00:00 17,0 11,3 15,7 8 5 12 7 Z 1010,3 60 0,0
05.08.2020 06:00:00 16,8 10,4 16,1 4 2 16 8 ZZW 1009,9 60 0,0
05.08.2020 05:00:00 18,0 10,4 16,7 11 6 16 8 ZZW 1009,9 60 0,0
05.08.2020 04:00:00 17,4 10,5 16,6 7 4 15 8 ZW 1010,0 60 0,0
05.08.2020 03:00:00 18,7 10,3 17,3 9 5 16 9 ZZW 1010,0 60 0,0
05.08.2020 02:00:00 18,0 10,8 17,3 8 5 15 8 ZZW 1010,1 60 0,0
05.08.2020 01:00:00 18,6 11,9 17,8 6 4 13 7 ZZW 1010,0 60 0,0
05.08.2020 00:00:00 19,6 11,9 18,8 5 3 19 10 ZZO 1009,9 60 0,0
04.08.2020 23:00:00 20,6 13,1 19,2 10 5 16 9 ZZO 1009,6 60 0,0
04.08.2020 22:00:00 20,9 13,6 20,3 3 2 18 10 Z 1009,3 56 0,0
04.08.2020 21:00:00 23,3 13,5 22,7 3 2 13 7 ZZO 1008,7 58 0,0
04.08.2020 20:00:00 27,0 11,5 28,0 3 1 18 10 NW 1007,9 60 0,0
04.08.2020 19:00:00 27,9 10,6 31,8 9 5 16 8 WNW 1007,5 56 0,0
04.08.2020 18:00:00 29,3 6,0 34,9 7 4 16 9 NO 1007,0 59 0,0
04.08.2020 17:00:00 29,2 13,0 34,5 7 4 28 15 WZW 1006,8 52 0,0
04.08.2020 16:00:00 28,0 14,6 34,0 7 4 25 13 ZW 1006,9 19 0,0
04.08.2020 15:00:00 27,9 12,7 32,5 6 4 31 17 NW 1007,1 60 0,0
04.08.2020 14:00:00 27,6 14,6 30,0 6 4 29 15 ZZW 1006,9 59 0,0
04.08.2020 13:00:00 26,6 14,0 30,3 16 9 36 19 W 1006,5 60 0,0
04.08.2020 12:00:00 27,2 14,6 28,7 14 8 36 19 WZW 1006,0 20 0,0
04.08.2020 11:00:00 26,5 15,2 25,7 16 9 38 20 ZZW 1005,4 60 0,0
04.08.2020 10:00:00 24,1 15,3 20,9 24 13 39 21 ZZW 1005,1 60 0,0
04.08.2020 09:00:00 21,2 15,7 17,4 16 9 30 16 Z 1005,9 51 0,2
04.08.2020 08:00:00 18,8 15,7 16,8 19 10 41 22 Z 1005,9 18 1,6
04.08.2020 07:00:00 22,3 13,4 22,2 19 10 45 24 ZZW 1005,1 18 0,0
04.08.2020 06:00:00 22,7 12,6 22,2 25 14 46 25 ZZW 1004,8 60 0,0
04.08.2020 05:00:00 22,5 12,1 22,2 21 12 40 22 ZZW 1004,8 60 0,0
04.08.2020 04:00:00 22,9 12,2 22,2 22 12 42 23 ZZW 1005,2 60 0,0
04.08.2020 03:00:00 23,2 13,1 22,8 25 14 53 29 ZW 1005,0 59 0,0
04.08.2020 02:00:00 23,6 13,2 23,3 24 13 55 30 ZZW 1005,2 56 0,0
04.08.2020 01:00:00 24,4 14,2 24,1 31 17 64 35 ZZW 1005,3 50 0,0
04.08.2020 00:00:00 24,7 14,8 24,3 33 18 48 26 ZZW 1005,0 50 0,0
03.08.2020 23:00:00 24,8 15,7 24,2 26 14 47 26 ZZW 1005,3 44 0,0
03.08.2020 22:00:00 24,6 15,5 24,3 23 13 51 28 ZZW 1005,3 49 0,0
03.08.2020 21:00:00 24,8 15,4 24,6 32 17 63 34 ZZW 1005,1 48 0,0
03.08.2020 20:00:00 25,4 14,8 25,8 28 15 58 32 ZZW 1005,2 46 0,0
03.08.2020 19:00:00 26,5 15,8 27,8 30 16 72 39 ZZW 1005,4 22 0,0
03.08.2020 18:00:00 28,2 11,7 31,4 34 19 63 34 ZZW 1005,1 35 0,0
03.08.2020 17:00:00 29,1 14,1 32,6 34 18 58 31 ZZW 1005,7 37 0,0
03.08.2020 16:00:00 29,7 14,3 33,0 35 19 61 33 ZZW 1006,2 37 0,0
03.08.2020 15:00:00 30,1 15,4 30,8 29 15 51 28 ZW 1006,4 40 0,0
03.08.2020 14:00:00 30,0 14,9 32,4 31 17 55 30 ZZW 1007,0 37 0,0
03.08.2020 13:00:00 30,3 14,8 31,5 31 17 61 33 ZW 1007,4 20 0,0
03.08.2020 12:00:00 29,9 14,4 31,5 29 16 55 30 ZW 1007,1 52 0,0
03.08.2020 11:00:00 30,4 13,2 31,0 22 12 49 26 ZW 1007,1 56 0,0
03.08.2020 10:00:00 29,7 15,4 29,3 24 13 41 22 ZZW 1007,2 45 0,0
03.08.2020 09:00:00 28,7 15,9 28,3 27 14 48 26 ZZW 1007,1 55 0,0
03.08.2020 08:00:00 28,1 15,7 28,0 22 12 44 24 ZZW 1006,9 58 0,0
03.08.2020 07:00:00 28,8 13,9 28,1 26 14 49 26 ZZW 1006,8 59 0,0
03.08.2020 06:00:00 28,7 13,4 28,2 24 13 48 26 ZZW 1006,3 60 0,0
03.08.2020 05:00:00 28,8 14,6 27,3 24 13 43 23 ZZW 1006,2 60 0,0
03.08.2020 04:00:00 27,7 16,0 26,9 18 10 38 21 ZZW 1007,1 60 0,0
03.08.2020 03:00:00 27,6 17,2 26,8 19 10 35 19 Z 1007,9 55 0,0
03.08.2020 02:00:00 27,7 17,5 27,1 16 8 35 19 ZZW 1008,4 54 0,0
03.08.2020 01:00:00 28,6 17,2 27,2 23 12 41 22 ZZW 1008,6 55 0,0
03.08.2020 00:00:00 27,7 17,8 26,8 20 11 48 26 ZZW 1008,3 48 0,0
02.08.2020 23:00:00 27,2 20,8 26,8 18 10 33 18 ZZW 1008,7 43 0,0
02.08.2020 22:00:00 27,4 20,5 27,1 14 8 39 21 Z 1008,0 32 0,0

tt = temperatuur
td = dauwpunt
tt 5cm = temperatuur 5cm
ff = windsnelheid
fx = windstoten
dd = windrichting
ppp = luchtdruk
vv = zicht
rr = neerslag

Weerstations in de omgeving